Weather History for KRHI - November, 2013

Change the Weather History Date:

Monday, November 4, 2013

  Actual Average Record
Temperature  
Mean Temperature 43 °F 36 °F  
Max Temperature 46 °F 45 °F 70 °F (2008)
Min Temperature 39 °F 28 °F 1 °F (1951)
Degree Days  
Heating Degree Days 22 29  
Month to date heating degree days 110 112  
Since 1 July heating degree days 1212 1205  
Cooling Degree Days 0 0  
Month to date cooling degree days 0 0  
Year to date cooling degree days 281 261  
Moisture  
Dew Point 37 °F    
Average Humidity 83    
Maximum Humidity 100    
Minimum Humidity 65    
Precipitation  
Precipitation 0.09 in 0.06 in 0.87 in (1964)
Month to date precipitation 0.25 0.26  
Year to date precipitation 33.36 28.38  
Snow  
Snow 0.00 in - 2.00 in (1962)
Month to date snowfall T  
Since 1 July snowfall 2.2  
Since 1 September snowfall 2.2  
Snow Depth 0.00 in    
Sea Level Pressure  
Sea Level Pressure 30.04 in    
Wind  
Wind Speed 12 mph (SSW)    
Max Wind Speed 20 mph    
Max Gust Speed 31 mph    
Visibility 8 miles    
Events Rain    
T = Trace of Precipitation, MM = Missing Value Source: NWS Daily Summary

Daily Weather History Graph

Daily Weather History Graph

Search for Another Location

Airport or City:

Trip Planner

Search our weather history database for the weather conditions in past years. The results will help you decide how hot, cold, wet, or windy it might be!

Date:

Astronomy

Nov. 04, 2013 Rise Set
Actual Time 6:42 AM CST 4:40 PM CST
Civil Twilight 6:11 AM CST 5:11 PM CST
Nautical Twilight 5:35 AM CST 5:46 PM CST
Astronomical Twilight 5:01 AM CST 6:21 PM CST
Moon 7:55 AM CST (11/4) 5:41 PM CST (11/4)
Length of Visible Light 11h 00m
Length of Day
9h 57m
New Moon, 2% of the Moon is Illuminated
Nov 4
New Moon
Nov 9
First Quarter
Nov 17
Full
Nov 25
Last Quarter
Dec 2
New

Hourly Weather History & Observations

Time (CST) Temp. Windchill Dew Point Humidity Pressure Visibility Wind Dir Wind Speed Gust Speed Precip Events Conditions
12:53 AM 39.0 °F 31.0 °F 34.0 °F 82% 30.17 in 10.0 mi SSE 13.8 mph 26.5 mph N/A   Partly Cloudy
1:53 AM 39.0 °F 30.6 °F 34.0 °F 82% 30.16 in 10.0 mi SSE 15.0 mph 27.6 mph N/A   Partly Cloudy
2:53 AM 39.0 °F 30.3 °F 34.0 °F 82% 30.14 in 10.0 mi SSE 16.1 mph 28.8 mph N/A   Partly Cloudy
3:53 AM 39.0 °F 31.0 °F 34.0 °F 82% 30.14 in 10.0 mi SSE 13.8 mph 24.2 mph N/A   Scattered Clouds
4:05 AM 39.2 °F 31.2 °F 33.8 °F 81% 30.09 in 10.0 mi SSE 13.8 mph 23.0 mph N/A   Mostly Cloudy
4:30 AM 39.2 °F 31.2 °F 33.8 °F 81% 30.08 in 10.0 mi SSE 13.8 mph 21.9 mph N/A   Scattered Clouds
4:53 AM 39.0 °F 31.4 °F 34.0 °F 82% 30.13 in 10.0 mi SSE 12.7 mph 21.9 mph N/A   Scattered Clouds
5:53 AM 39.0 °F 30.6 °F 34.0 °F 82% 30.11 in 10.0 mi SSE 15.0 mph 20.7 mph N/A   Partly Cloudy
6:53 AM 39.9 °F 31.4 °F 34.0 °F 79% 30.08 in 10.0 mi SSE 16.1 mph 25.3 mph N/A   Partly Cloudy
7:53 AM 41.0 °F 32.8 °F 34.0 °F 76% 30.08 in 10.0 mi SSE 16.1 mph 25.3 mph N/A   Scattered Clouds
8:53 AM 42.1 °F 33.6 °F 34.0 °F 73% 30.08 in 10.0 mi South 18.4 mph 28.8 mph N/A   Overcast
9:53 AM 43.0 °F 35.7 °F 35.1 °F 74% 30.07 in 10.0 mi South 15.0 mph 24.2 mph N/A   Overcast
10:53 AM 44.1 °F 38.1 °F 35.1 °F 71% 30.06 in 10.0 mi South 11.5 mph 25.3 mph 0.00 in   Mostly Cloudy
11:32 AM 44.6 °F 38.8 °F 33.8 °F 66% 29.98 in 10.0 mi South 11.5 mph 26.5 mph N/A   Mostly Cloudy
11:40 AM 44.6 °F 38.8 °F 33.8 °F 66% 29.99 in 10.0 mi South 11.5 mph 21.9 mph N/A   Mostly Cloudy
11:53 AM 45.0 °F 39.7 °F 34.0 °F 65% 30.00 in 10.0 mi SSE 10.4 mph 23.0 mph N/A   Overcast
12:30 PM 44.6 °F 37.2 °F 35.6 °F 71% 29.95 in 10.0 mi South 17.3 mph 24.2 mph N/A   Overcast
12:53 PM 46.0 °F 39.3 °F 35.1 °F 66% 29.97 in 10.0 mi South 16.1 mph 27.6 mph N/A   Overcast
1:53 PM 45.0 °F 38.5 °F 35.1 °F 68% 29.98 in 10.0 mi South 13.8 mph 20.7 mph N/A   Overcast
2:53 PM 44.1 °F 38.1 °F 37.0 °F 76% 29.99 in 10.0 mi South 11.5 mph - 0.00 in Rain Light Rain
3:53 PM 42.1 °F 37.1 °F 39.9 °F 92% 30.00 in 5.0 mi South 8.1 mph - 0.06 in Rain Light Rain
4:15 PM 42.8 °F 37.0 °F 39.2 °F 87% 29.95 in 4.0 mi South 10.4 mph 17.3 mph 0.01 in Rain Light Rain
4:33 PM 42.8 °F 37.0 °F 39.2 °F 87% 29.96 in 5.0 mi South 10.4 mph 17.3 mph 0.01 in Rain Light Rain
4:39 PM 42.8 °F 38.0 °F 39.2 °F 87% 29.96 in 5.0 mi South 8.1 mph - 0.01 in Rain Light Rain
4:49 PM 42.8 °F 37.5 °F 39.2 °F 87% 29.96 in 6.0 mi South 9.2 mph - 0.01 in   Overcast
4:53 PM 42.1 °F 37.1 °F 39.9 °F 92% 30.00 in 6.0 mi South 8.1 mph - 0.01 in   Overcast
5:05 PM 42.8 °F 36.6 °F 39.2 °F 87% 29.96 in 7.0 mi SSW 11.5 mph - N/A   Overcast
5:44 PM 42.8 °F 35.8 °F 41.0 °F 93% 29.97 in 3.0 mi SSW 13.8 mph - 0.01 in Rain Light Rain
5:53 PM 42.1 °F 37.1 °F 41.0 °F 96% 30.02 in 3.0 mi SSW 8.1 mph 18.4 mph 0.01 in Rain Light Rain
6:13 PM 42.8 °F 36.2 °F 41.0 °F 93% 29.98 in 2.5 mi SSW 12.7 mph 20.7 mph 0.01 in Rain Light Rain
6:24 PM 42.8 °F 37.0 °F 42.8 °F 100% 29.98 in 3.0 mi SSW 10.4 mph - 0.01 in Rain Light Rain
6:53 PM 42.1 °F 36.1 °F 41.0 °F 96% 30.03 in 3.0 mi SSW 10.4 mph - 0.01 in   Overcast
7:53 PM 43.0 °F 37.2 °F 42.1 °F 97% 30.04 in 4.0 mi SW 10.4 mph - N/A   Overcast
8:53 PM 43.0 °F 37.7 °F 42.1 °F 97% 30.06 in 6.0 mi SW 9.2 mph - N/A   Overcast
9:35 PM 42.8 °F 38.6 °F 41.0 °F 93% 30.05 in 9.0 mi WSW 6.9 mph - 0.00 in   Overcast
9:43 PM 42.8 °F 38.0 °F 41.0 °F 93% 30.05 in 9.0 mi SW 8.1 mph - 0.00 in   Overcast
9:53 PM 43.0 °F 38.2 °F 41.0 °F 93% 30.09 in 10.0 mi SW 8.1 mph - 0.00 in   Overcast
10:00 PM 42.8 °F 38.0 °F 41.0 °F 93% 30.06 in 10.0 mi WSW 8.1 mph - N/A   Overcast
10:30 PM 42.8 °F 37.5 °F 39.2 °F 87% 30.07 in 10.0 mi West 9.2 mph - N/A   Overcast
10:46 PM 42.8 °F 36.6 °F 39.2 °F 87% 30.08 in 10.0 mi WSW 11.5 mph - N/A   Overcast
10:53 PM 42.1 °F 35.7 °F 39.0 °F 89% 30.12 in 10.0 mi WSW 11.5 mph - N/A   Overcast
11:25 PM 41.0 °F 34.7 °F 37.4 °F 87% 30.09 in 10.0 mi WSW 10.4 mph - N/A   Overcast
11:53 PM 41.0 °F 36.4 °F 37.9 °F 89% 30.14 in 10.0 mi WSW 6.9 mph - N/A   Overcast